When you browse on this site, cookies collect data to enhance your experience and personalize the content and advertising you see.
Visit our Privacy Policy to learn more. By continuing to use the site, you agree to this use of cookies and data.
  • In United Kingdom
  • List of Countries
  • For 7 days
  • Water Temperature
  • Weather Map
  • Weather Widgets
  • user-avatar
    Login

    Hourly Weather Melbourne

    Today, 17 November, Sunday

    Time Temperature Precipitation Wind Pressure Humidity
    00:00 +10°C° 0 mm 3 mps 763 mmHg 72%
    01:00 +10°C° 0 mm 4 mps 763 mmHg 76%
    02:00 +9°C° 0 mm 3 mps 763 mmHg 78%
    03:00 +9°C° 0 mm 3 mps 763 mmHg 81%
    04:00 +8°C° 0 mm 3 mps 762 mmHg 84%
    05:00 +9°C° 0 mm 3 mps 763 mmHg 81%
    06:00 +10°C° 0 mm 3 mps 763 mmHg 78%
    07:00 +11°C° 0 mm 3 mps 764 mmHg 75%
    08:00 +13°C° 0.1 mm 3 mps 764 mmHg 68%
    09:00 +14°C° 0.1 mm 3 mps 764 mmHg 62%
    10:00 +16°C° 0.1 mm 3 mps 764 mmHg 55%
    11:00 +17°C° 0 mm 4 mps 764 mmHg 53%
    12:00 +17°C° 0 mm 4 mps 763 mmHg 50%
    13:00 +18°C° 0 mm 4 mps 763 mmHg 47%
    14:00 +18°C° 0 mm 4 mps 763 mmHg 47%
    15:00 +18°C° 0 mm 4 mps 762 mmHg 47%
    16:00 +18°C° 0 mm 3 mps 762 mmHg 47%
    17:00 +16°C° 0 mm 3 mps 762 mmHg 53%
    18:00 +14°C° 0 mm 3 mps 763 mmHg 59%
    19:00 +13°C° 0 mm 3 mps 763 mmHg 65%
    20:00 +13°C° 0 mm 2 mps 763 mmHg 68%
    21:00 +12°C° 0 mm 1 mps 763 mmHg 71%
    22:00 +11°C° 0 mm 1 mps 764 mmHg 73%
    23:00 +11°C° 0 mm 1 mps 763 mmHg 75%

    Tomorrow, 18 November, Monday

    Time Temperature Precipitation Wind Pressure Humidity
    00:00 +10°C° 0 mm 1 mps 762 mmHg 76%
    01:00 +10°C° 0 mm 1 mps 762 mmHg 78%
    02:00 +10°C° 0 mm 1 mps 762 mmHg 78%
    03:00 +9°C° 0 mm 2 mps 762 mmHg 78%
    04:00 +9°C° 0 mm 2 mps 762 mmHg 77%
    05:00 +10°C° 0 mm 2 mps 761 mmHg 72%
    06:00 +12°C° 0 mm 2 mps 761 mmHg 67%
    07:00 +13°C° 0 mm 2 mps 761 mmHg 61%
    08:00 +16°C° 0 mm 2 mps 761 mmHg 53%
    09:00 +19°C° 0 mm 2 mps 760 mmHg 45%
    10:00 +23°C° 0 mm 2 mps 760 mmHg 37%
    11:00 +25°C° 0 mm 3 mps 760 mmHg 34%
    12:00 +26°C° 0 mm 3 mps 759 mmHg 31%
    13:00 +28°C° 0 mm 3 mps 758 mmHg 28%
    14:00 +28°C° 0 mm 3 mps 758 mmHg 29%
    15:00 +28°C° 0 mm 3 mps 757 mmHg 29%
    16:00 +28°C° 0 mm 3 mps 757 mmHg 29%
    17:00 +26°C° 0 mm 3 mps 757 mmHg 38%
    18:00 +22°C° 0 mm 3 mps 757 mmHg 47%
    19:00 +20°C° 0 mm 3 mps 757 mmHg 55%
    20:00 +18°C° 0 mm 2 mps 757 mmHg 61%
    21:00 +17°C° 0 mm 2 mps 757 mmHg 66%
    22:00 +15°C° 0 mm 1 mps 758 mmHg 72%
    23:00 +15°C° 0 mm 1 mps 758 mmHg 74%

    Day after tomorrow, 19 November, Tuesday

    Time Temperature Precipitation Wind Pressure Humidity
    00:00 +14°C° 0 mm 1 mps 757 mmHg 76%
    01:00 +13°C° 0 mm 1 mps 757 mmHg 78%
    02:00 +13°C° 0 mm 1 mps 757 mmHg 80%
    03:00 +12°C° 0 mm 1 mps 757 mmHg 81%
    04:00 +12°C° 0 mm 1 mps 757 mmHg 82%
    05:00 +13°C° 0 mm 1 mps 757 mmHg 78%
    06:00 +14°C° 0 mm 1 mps 758 mmHg 74%
    07:00 +14°C° 0 mm 1 mps 758 mmHg 70%
    08:00 +16°C° 0 mm 2 mps 758 mmHg 64%
    09:00 +18°C° 0 mm 2 mps 758 mmHg 58%
    10:00 +20°C° 0 mm 2 mps 758 mmHg 51%
    11:00 +20°C° 0 mm 3 mps 758 mmHg 51%
    12:00 +21°C° 0 mm 3 mps 758 mmHg 51%
    13:00 +21°C° 0 mm 4 mps 758 mmHg 51%
    14:00 +21°C° 0 mm 4 mps 758 mmHg 52%
    15:00 +21°C° 0 mm 4 mps 758 mmHg 52%
    16:00 +20°C° 0 mm 4 mps 758 mmHg 52%
    17:00 +19°C° 0 mm 4 mps 759 mmHg 56%
    18:00 +17°C° 0 mm 4 mps 759 mmHg 61%
    19:00 +16°C° 0 mm 3 mps 760 mmHg 66%
    20:00 +14°C° 0 mm 3 mps 760 mmHg 69%
    21:00 +13°C° 0 mm 2 mps 760 mmHg 73%
    22:00 +12°C° 0 mm 2 mps 761 mmHg 76%
    23:00 +12°C° 0 mm 2 mps 761 mmHg 78%

    20 November, Wednesday

    Time Temperature Precipitation Wind Pressure Humidity
    00:00 +11°C° 0 mm 1 mps 760 mmHg 79%
    01:00 +11°C° 0 mm 1 mps 760 mmHg 80%
    02:00 +10°C° 0 mm 1 mps 760 mmHg 81%
    03:00 +10°C° 0 mm 1 mps 759 mmHg 82%
    04:00 +10°C° 0 mm 1 mps 759 mmHg 83%
    05:00 +11°C° 0 mm 1 mps 759 mmHg 76%
    06:00 +12°C° 0 mm 1 mps 759 mmHg 70%
    07:00 +14°C° 0 mm 1 mps 759 mmHg 64%
    08:00 +19°C° 0 mm 1 mps 758 mmHg 50%
    09:00 +23°C° 0 mm 1 mps 758 mmHg 37%
    10:00 +27°C° 0 mm 1 mps 757 mmHg 23%
    11:00 +29°C° 0 mm 2 mps 757 mmHg 22%
    12:00 +31°C° 0 mm 2 mps 757 mmHg 21%
    13:00 +34°C° 0 mm 3 mps 757 mmHg 21%
    14:00 +34°C° 0 mm 3 mps 756 mmHg 21%
    15:00 +35°C° 0 mm 4 mps 755 mmHg 21%
    16:00 +35°C° 0 mm 4 mps 755 mmHg 22%
    17:00 +33°C° 0 mm 4 mps 754 mmHg 24%
    18:00 +32°C° 0 mm 5 mps 754 mmHg 27%
    19:00 +29°C° 0 mm 5 mps 754 mmHg 29%
    20:00 +29°C° 0 mm 6 mps 754 mmHg 28%
    21:00 +29°C° 0 mm 6 mps 753 mmHg 26%
    22:00 +29°C° 0 mm 7 mps 753 mmHg 25%
    23:00 +29°C° 0 mm 7 mps 753 mmHg 25%

    21 November, Thursday

    Time Temperature Precipitation Wind Pressure Humidity
    00:00 +28°C° 0 mm 7 mps 752 mmHg 25%
    01:00 +28°C° 0 mm 8 mps 752 mmHg 25%
    02:00 +29°C° 0 mm 8 mps 752 mmHg 24%
    03:00 +29°C° 0 mm 9 mps 751 mmHg 23%
    04:00 +31°C° 0 mm 10 mps 751 mmHg 22%
    05:00 +29°C° 0 mm 9 mps 752 mmHg 25%
    06:00 +28°C° 0 mm 7 mps 754 mmHg 28%
    07:00 +28°C° 0 mm 6 mps 755 mmHg 30%
    08:00 +27°C° 0.1 mm 5 mps 756 mmHg 34%
    09:00 +27°C° 0.1 mm 4 mps 756 mmHg 38%
    10:00 +27°C° 0.1 mm 3 mps 757 mmHg 42%
    11:00 +27°C° 0 mm 4 mps 757 mmHg 42%
    12:00 +26°C° 0 mm 5 mps 757 mmHg 43%
    13:00 +26°C° 0 mm 6 mps 756 mmHg 43%
    14:00 +23°C° 0 mm 6 mps 756 mmHg 47%
    15:00 +22°C° 0 mm 5 mps 756 mmHg 50%
    16:00 +20°C° 0 mm 5 mps 756 mmHg 54%
    17:00 +19°C° 0 mm 5 mps 757 mmHg 57%
    18:00 +17°C° 0 mm 5 mps 758 mmHg 60%
    19:00 +16°C° 0 mm 5 mps 759 mmHg 63%
    20:00 +17°C° 0 mm 4 mps 759 mmHg 66%
    21:00 +15°C° 0 mm 4 mps 759 mmHg 68%
    22:00 +14°C° 0 mm 4 mps 759 mmHg 70%
    23:00 +14°C° 0 mm 4 mps 759 mmHg 72%

    22 November, Friday

    Time Temperature Precipitation Wind Pressure Humidity
    00:00 +14°C° 0 mm 3 mps 759 mmHg 74%
    01:00 +14°C° 0 mm 3 mps 759 mmHg 76%
    02:00 +13°C° 0 mm 3 mps 759 mmHg 77%
    03:00 +13°C° 0 mm 3 mps 758 mmHg 77%
    04:00 +12°C° 0 mm 3 mps 758 mmHg 77%
    05:00 +13°C° 0 mm 3 mps 758 mmHg 75%
    06:00 +14°C° 0 mm 3 mps 758 mmHg 73%
    07:00 +14°C° 0 mm 3 mps 758 mmHg 71%
    08:00 +17°C° 0 mm 3 mps 758 mmHg 65%
    09:00 +18°C° 0 mm 2 mps 758 mmHg 58%
    10:00 +20°C° 0 mm 2 mps 758 mmHg 52%
    11:00 +21°C° 0 mm 3 mps 757 mmHg 48%
    12:00 +22°C° 0 mm 3 mps 757 mmHg 45%
    13:00 +24°C° 0 mm 3 mps 756 mmHg 42%
    14:00 +23°C° 0.1 mm 4 mps 756 mmHg 43%
    15:00 +23°C° 0.1 mm 4 mps 755 mmHg 45%
    16:00 +22°C° 0.1 mm 4 mps 755 mmHg 46%
    17:00 +21°C° 0 mm 4 mps 755 mmHg 50%
    18:00 +19°C° 0 mm 3 mps 755 mmHg 53%
    19:00 +18°C° 0 mm 3 mps 755 mmHg 57%
    20:00 +16°C° 0 mm 3 mps 756 mmHg 60%
    21:00 +15°C° 0 mm 2 mps 756 mmHg 64%
    22:00 +14°C° 0 mm 2 mps 756 mmHg 68%
    23:00 +13°C° 0 mm 2 mps 756 mmHg 70%
    Show more